Weather History for PAQT - April, 2014

Change the Weather History Date:

Monday, April 7, 2014

  Actual Average (PAKU) Record (PAKU)
Temperature  
Mean Temperature -21 °F -  
Max Temperature -15 °F 3 °F 33 °F (1989)
Min Temperature -27 °F -6 °F -35 °F (1985)
Degree Days  
Heating Degree Days 86    
Moisture  
Dew Point -25 °F    
Average Humidity 84    
Maximum Humidity 91    
Minimum Humidity 81    
Precipitation  
Precipitation 0.00 in - - ()
Sea Level Pressure  
Sea Level Pressure 29.91 in    
Wind  
Wind Speed 7 mph (SW)    
Max Wind Speed 9 mph    
Max Gust Speed -    
Visibility 6 miles    
Events Snow    
Averages and records for this station are not official NWS values.
T = Trace of Precipitation, MM = Missing Value Source: NWS Daily Summary

Daily Weather History Graph

Daily Weather History Graph

Search for Another Location

Airport or City:

Trip Planner

Search our weather history database for the weather conditions in past years. The results will help you decide how hot, cold, wet, or windy it might be!

Date:

Astronomy

Apr. 07, 2014 Rise Set
Actual Time 6:36 AM AKDT 9:38 PM AKDT
Civil Twilight 5:24 AM AKDT 10:51 PM AKDT
Nautical Twilight 3:15 AM AKDT 1:11 AM AKDT
Astronomical Twilight Sun does not set Sun does not set
Moon 10:58 AM AKDT (4/7) 6:09 AM AKDT (4/7)
Length of Visible Light 17h 27m
Length of Day
15h 02m
First Quarter, 55% of the Moon is Illuminated
Apr 7
First Quarter
Apr 14
Full
Apr 21
Last Quarter
Apr 28
New
May 6
First Quarter

Hourly Weather History & Observations

Time (AKDT) Temp. Windchill Dew Point Humidity Pressure Visibility Wind Dir Wind Speed Gust Speed Precip Events Conditions
12:53 AM -25.1 °F -44.7 °F -27.9 °F 86% 29.96 in 10.0 mi SW 8.1 mph - N/A   Overcast
1:25 AM -25.1 °F -43.1 °F -27.9 °F 86% 29.95 in 5.0 mi SSW 6.9 mph - 0.00 in   Mostly Cloudy
1:53 AM -25.1 °F -44.7 °F -29.0 °F 82% 29.96 in 7.0 mi SW 8.1 mph - 0.00 in   Mostly Cloudy
2:13 AM -25.1 °F -43.1 °F -29.0 °F 82% 29.95 in 10.0 mi SW 6.9 mph - N/A   Scattered Clouds
2:53 AM -25.1 °F -43.1 °F -27.9 °F 86% 29.95 in 8.0 mi SSW 6.9 mph - 0.00 in   Overcast
3:09 AM -25.1 °F -43.1 °F -27.9 °F 86% 29.95 in 3.0 mi SSW 6.9 mph - 0.00 in   Overcast
3:23 AM -24.0 °F -41.8 °F -27.9 °F 82% 29.94 in 9.0 mi SSW 6.9 mph - 0.00 in   Overcast
3:53 AM -24.0 °F -43.4 °F -27.9 °F 82% 29.95 in 9.0 mi SSW 8.1 mph - 0.00 in   Overcast
4:53 AM -25.1 °F -44.7 °F -27.9 °F 86% 29.95 in 4.0 mi SSW 8.1 mph - 0.00 in   Overcast
5:15 AM -26.0 °F -45.8 °F -29.9 °F 81% 29.94 in 10.0 mi SSW 8.1 mph - 0.00 in   Scattered Clouds
5:53 AM -26.0 °F -44.2 °F -29.9 °F 81% 29.95 in 8.0 mi South 6.9 mph - 0.00 in   Overcast
6:26 AM -27.0 °F -48.5 °F -29.9 °F 86% 29.93 in 5.0 mi South 9.2 mph - N/A   Mostly Cloudy
6:42 AM -27.9 °F -48.2 °F -31.0 °F 85% 29.93 in 10.0 mi South 8.1 mph - N/A   Scattered Clouds
6:53 AM -27.9 °F -48.2 °F -31.0 °F 85% 29.94 in 10.0 mi South 8.1 mph - N/A   Clear
7:53 AM -27.0 °F -43.7 °F -29.9 °F 86% 29.94 in 5.0 mi South 5.8 mph - N/A   Overcast
8:10 AM -27.0 °F -45.5 °F -29.9 °F 86% 29.93 in 2.0 mi South 6.9 mph - 0.00 in   Overcast
8:17 AM -27.0 °F -47.1 °F -29.9 °F 86% 29.92 in 3.0 mi South 8.1 mph - 0.00 in   Overcast
8:53 AM -27.0 °F -47.1 °F -29.9 °F 86% 29.93 in 10.0 mi South 8.1 mph - 0.00 in   Partly Cloudy
9:53 AM -26.0 °F -44.2 °F -29.0 °F 85% 29.92 in 9.0 mi SSW 6.9 mph - N/A   Clear
10:53 AM -23.1 °F -38.9 °F -26.0 °F 86% 29.92 in 8.0 mi South 5.8 mph - N/A   Mostly Cloudy
12:53 PM -18.9 °F -34.0 °F -23.1 °F 81% 29.91 in 7.0 mi SSW 5.8 mph - N/A   Overcast
1:31 PM -18.0 °F -34.7 °F -22.0 °F 82% 29.90 in 2.0 mi SW 6.9 mph - 0.00 in   Overcast
1:39 PM -18.0 °F -34.7 °F -22.0 °F 82% 29.90 in 1.5 mi SSW 6.9 mph - 0.00 in   Overcast
1:46 PM -18.0 °F -34.7 °F -22.0 °F 82% 29.90 in 3.0 mi SW 6.9 mph - 0.00 in   Overcast
1:53 PM -18.0 °F -34.7 °F -22.0 °F 82% 29.91 in 6.0 mi SW 6.9 mph - 0.00 in   Overcast
2:43 PM -17.0 °F -33.4 °F -20.9 °F 82% 29.90 in 2.5 mi SW 6.9 mph - N/A   Overcast
2:53 PM -16.1 °F -32.3 °F -20.0 °F 82% 29.91 in 3.0 mi SW 6.9 mph - N/A   Overcast
3:13 PM -16.1 °F -30.6 °F -20.0 °F 82% 29.90 in 2.5 mi SW 5.8 mph - N/A   Overcast
3:30 PM -16.1 °F -30.6 °F -20.0 °F 82% 29.89 in 4.0 mi SW 5.8 mph - N/A   Overcast
3:53 PM -15.0 °F -29.3 °F -18.9 °F 82% 29.90 in 8.0 mi SW 5.8 mph - N/A   Mostly Cloudy
4:53 PM -15.0 °F -29.3 °F -18.9 °F 82% 29.90 in 5.0 mi SW 5.8 mph - N/A   Mostly Cloudy
5:07 PM -15.0 °F -29.3 °F -18.0 °F 86% 29.89 in 8.0 mi SW 5.8 mph - N/A   Partly Cloudy
5:53 PM -15.0 °F -29.3 °F -18.9 °F 82% 29.89 in 10.0 mi SW 5.8 mph - N/A   Overcast
6:08 PM -15.0 °F -29.3 °F -18.9 °F 82% 29.88 in 2.5 mi SW 5.8 mph - 0.00 in   Overcast
6:24 PM -15.0 °F -27.4 °F -18.9 °F 82% 29.88 in 4.0 mi SW 4.6 mph - 0.00 in   Overcast
6:45 PM -16.1 °F -28.6 °F -20.0 °F 82% 29.88 in 10.0 mi WSW 4.6 mph - 0.00 in   Overcast
6:53 PM -16.1 °F -30.6 °F -20.0 °F 82% 29.89 in 10.0 mi WSW 5.8 mph - 0.00 in   Overcast
7:32 PM -17.0 °F -29.7 °F -20.0 °F 86% 29.88 in 5.0 mi WSW 4.6 mph - N/A   Mostly Cloudy
7:41 PM -17.0 °F -29.7 °F -20.0 °F 86% 29.89 in 9.0 mi WSW 4.6 mph - N/A   Mostly Cloudy
7:53 PM -18.0 °F -28.5 °F -20.0 °F 91% 29.89 in 10.0 mi SW 3.5 mph - N/A   Mostly Cloudy
8:06 PM -18.0 °F -30.9 °F -22.0 °F 82% 29.88 in 6.0 mi SW 4.6 mph - N/A   Overcast
8:23 PM -20.0 °F -33.3 °F -22.0 °F 91% 29.88 in 10.0 mi SW 4.6 mph - N/A   Scattered Clouds
8:53 PM -20.0 °F -35.3 °F -24.0 °F 82% 29.88 in 10.0 mi SW 5.8 mph - N/A   Clear
9:53 PM -22.0 °F -39.4 °F -25.1 °F 86% 29.88 in 4.0 mi SW 6.9 mph - 0.00 in   Overcast
10:02 PM -23.1 °F -38.9 °F -25.1 °F 90% 29.87 in 2.5 mi SW 5.8 mph - 0.00 in   Overcast
10:12 PM -23.1 °F -40.7 °F -26.0 °F 86% 29.87 in 6.0 mi SW 6.9 mph - 0.00 in   Mostly Cloudy
10:28 PM -23.1 °F -40.7 °F -26.0 °F 86% 29.87 in 4.0 mi WSW 6.9 mph - 0.00 in   Mostly Cloudy
10:48 PM -25.6 °F -41.9 °F -27.4 °F 91% 29.87 in 10.0 mi WSW 5.8 mph - 0.00 in   Scattered Clouds
10:53 PM -25.1 °F -43.1 °F -27.0 °F 90% 29.88 in 10.0 mi WSW 6.9 mph - 0.00 in   Partly Cloudy
11:53 PM -22.0 °F -39.4 °F -26.0 °F 82% 29.88 in 6.0 mi WSW 6.9 mph - 0.00 in Snow Light Snow